Location: Hradec Kralove
(50.2170°N, 15.8330°E)
Time: 08:56:45
(UTC+01:00)

EO-79 - Visible Passes

Search period start: 04 March 2024 00:00
Search period end: 14 March 2024 00:00
Orbit: 566 x 582 km, 98.0° (Epoch: 03 March)

Date Brightness Start Highest point End Pass type
(mag) Time Alt. Az. Time Alt. Az. Time Alt. Az.
04 Mar ? 02:59:33 10° NNE 03:00:26 16° NNE 03:00:26 16° NNE visible
04 Mar ? 04:36:01 10° NNW 04:36:39 12° NNW 04:36:39 12° NNW visible
05 Mar ? 03:02:41 10° NNE 03:03:43 17° NNE 03:03:43 17° NNE visible
05 Mar ? 04:39:16 10° NNW 04:39:57 12° NW 04:39:57 12° NW visible
06 Mar ? 03:05:48 10° NNE 03:07:01 19° NNE 03:07:01 19° NNE visible
06 Mar ? 04:42:32 10° NNW 04:43:14 12° NW 04:43:14 12° NW visible
07 Mar ? 03:08:54 10° NNE 03:10:18 21° NNE 03:10:18 21° NNE visible
07 Mar ? 04:45:49 10° NNW 04:46:31 12° NW 04:46:31 12° NW visible
08 Mar ? 03:12:00 10° NNE 03:13:34 23° NNE 03:13:34 23° NNE visible
08 Mar ? 04:49:07 10° NW 04:49:46 11° NW 04:49:46 11° NW visible
09 Mar ? 03:15:05 10° NNE 03:16:48 24° N 03:16:48 24° N visible
09 Mar ? 04:52:26 10° NW 04:53:01 11° NW 04:53:01 11° NW visible
10 Mar ? 03:18:09 10° N 03:20:03 26° N 03:20:03 26° N visible
10 Mar ? 04:55:53 10° NW 04:56:15 10° NW 04:56:15 10° NW visible
11 Mar ? 03:21:13 10° N 03:23:16 29° N 03:23:16 29° N visible
12 Mar ? 03:24:16 10° N 03:26:29 31° N 03:26:29 31° N visible
13 Mar ? 01:53:20 10° NE 01:53:28 10° NE 01:53:28 10° NE visible
13 Mar ? 03:27:18 10° N 03:29:41 33° N 03:29:41 33° N visible
